sat.trackr.live / text

‹ back to catalog

STARLINK-32478

NORAD 61726 · 2024-196V

PAYLOAD ACTIVE UNKNOWN

§ Identity

Operator
Country
US
Launch date
2024-10-30
Launch site
AFETR
Launch vehicle
Mass (kg)
RCS (m²)

Purposes: comms

External: N2YO · Heavens-Above · Gunter

§ Orbital elements

Epoch: 2026-05-25T03:49:54.045120Z

Period
94.11 min
Inclination
53.1606°
Eccentricity
0.0001336
Mean motion
15.30193240 rev/d
Perigee alt
474.3 km
Apogee alt
476.2 km
Semi-major
6,853.4 km
B*
2.9885e-5
RAAN
106.2019°
Arg perigee
84.1824°
Mean anomaly
275.9329°
Rev number
8,886

§ Raw data

STARLINK-324781 61726U 24196V   26145.15965330  .00000526  00000+0  29885-4 0  99922 61726  53.1606 106.2019 0001336  84.1824 275.9329 15.30193240 88869

JSON: /api/v1/satellites/61726 · /tle

For live sub-satellite position, see the globe view (requires WebGL).

§ Visibility from observer

Set your observer location to see the next 7 days of passes ≥ 10°. The values pass through the URL so the page stays shareable.

No JS? Fill the form by hand. The geolocation button needs JavaScript.